www.pogodaiklimat.ru

Погода и климат >> Архив погоды >> Австрия >> Лангенлойс


ПОГОДА в Лангенлойсе

  • Прогноз погоды в Лангенлойсе
  • Монитор погоды в Лангенлойсе

АРХИВ ПОГОДЫ в Лангенлойсе

Время (UTC), дата Ветер
(напр.,м/с)
 
Видим.   Явления Облачность Т
(С)
Тd
(С)
f
(%)
Тe
(С)
Тes
(С)
Комфортность P
(гПа)
Po
(гПа)
Тmin
(С)
Tmax
(С)
R
(мм)
R24
(мм)
S
(см)
16 11.09 В 1 н/о н/о +22.3 +13.2 56 +25 +25 комфорт 1022.5 998.2
17 11.09 В 1 н/о н/о +20.3 +14.4 69 +24 +24 комфорт 1023.1 998.6
18 11.09 штиль 0 н/о н/о +17.4 +14.1 81 +17 +17 1023.9 999.1 +10.7 +24.2
19 11.09 СЗ 1 н/о н/о +16.3 +13.5 83 +17 +17 1024.9 1000.0
20 11.09 З 1 н/о н/о +15.2 +12.9 86 +16 +16 1025.4 1000.4
21 11.09 СЗ 2 н/о н/о +14.5 +12.6 88 +14 +14 1025.9 1000.8
22 11.09 СЗ 1 н/о н/о +13.6 +12.0 90 +14 +14 1026.5 1001.3
23 11.09 СЗ 1 н/о н/о +13.1 +11.8 92 +13 +13 1026.7 1001.5
00 12.09 СЗ 1 н/о н/о +12.6 +11.5 93 +13 +13 1027.1 1001.8
01 12.09 З 1 н/о н/о +12.0 +11.1 94 +12 +12 1027.4 1002.1
02 12.09 СЗ 1 н/о н/о +11.9 +11.0 94 +12 +12 1028.1 1002.7
03 12.09 СЗ 2 н/о н/о +12.1 +11.2 94 +11 +11 1028.5 1003.1
04 12.09 СЗ 1 н/о н/о +11.2 +10.3 94 +11 +11 1029.1 1003.6
05 12.09 СЗ 1 н/о н/о +11.1 +10.2 94 +11 +11 1029.6 1004.1
06 12.09 СЗ 1 н/о н/о +12.3 +11.0 92 +12 +12 1030.0 1004.6 +10.9 +17.7
07 12.09 С 1 н/о н/о +15.1 +12.1 82 +16 +16 1030.3 1005.2
08 12.09 ЮВ 1 н/о н/о +18.8 +13.0 69 +21 +21 комфорт 1030.4 1005.6
09 12.09 В 1 н/о н/о +20.9 +12.8 60 +24 +24 комфорт 1030.2 1005.6
10 12.09 З 3 н/о н/о +22.8 +10.1 45 +25 +25 комфорт 1030.1 1005.6
11 12.09 З 2 н/о н/о +23.3 +11.0 46 +26 +26 жарко 1030.0 1005.5
12 12.09 З 3 н/о н/о +22.9 +11.0 47 +25 +25 комфорт 1030.0 1005.5
13 12.09 З 3 н/о н/о +22.7 +11.2 48 +25 +25 комфорт 1029.9 1005.4
14 12.09 З 2 н/о н/о +21.9 +12.5 55 +24 +24 комфорт 1030.0 1005.4
15 12.09 З 2 н/о н/о +22.1 +12.6 55 +25 +25 комфорт 1029.8 1005.3
16 12.09 З 2 н/о н/о +23.0 +12.5 52 +26 +26 жарко 1029.7 1005.2
17 12.09 З 2 н/о н/о +21.3 +12.3 56 +23 +23 комфорт 1029.8 1005.2
18 12.09 штиль 0 н/о н/о +17.5 +13.4 77 +17 +17 1030.3 1005.4 +11.8 +23.9
20 12.09 С 1 н/о н/о +14.3 +12.4 88 +15 +15 1031.2 1006.0
21 12.09 штиль 0 н/о н/о +13.1 +11.6 91 +13 +13 1031.7 1006.3
22 12.09 СЗ 1 н/о н/о +13.1 +11.7 91 +13 +13 1031.8 1006.4
23 12.09 СЗ 1 н/о н/о +12.9 +11.5 91 +13 +13 1031.8 1006.4
00 13.09 З 1 н/о н/о +13.1 +11.5 90 +13 +13 1031.7 1006.3
01 13.09 СЗ 1 н/о н/о +13.6 +11.9 89 +14 +14 1031.3 1006.0
02 13.09 СЗ 2 н/о н/о +14.1 +12.0 87 +14 +14 1031.1 1005.9
03 13.09 С 1 н/о н/о +13.8 +12.3 91 +14 +14 1030.9 1005.6
04 13.09 СЗ 1 н/о н/о +13.4 +11.9 91 +14 +14 1031.0 1005.7
05 13.09 СЗ 1 н/о н/о +13.6 +12.0 90 +14 +14 1031.2 1005.9
06 13.09 С 1 н/о н/о +14.4 +12.4 88 +15 +15 1031.0 1005.8 +12.6 +17.7
07 13.09 штиль 0 н/о н/о +17.1 +13.5 79 +17 +17 1030.9 1005.9
08 13.09 ЮВ 1 н/о н/о +20.1 +14.6 71 +24 +24 комфорт 1030.7 1006.0
09 13.09 Ю 1 н/о н/о +22.6 +15.4 64 +27 +27 душно 1030.1 1005.6
10 13.09 ЮЗ 1 н/о н/о +23.0 +14.6 59 +27 +27 душно 1029.6 1005.2
11 13.09 СЗ 3 н/о н/о +24.9 +13.3 48 +27 +27 жарко 1029.4 1005.1
12 13.09 С 4 н/о н/о +25.5 +12.8 45 +27 +27 жарко 1028.9 1004.7
13 13.09 СЗ 3 н/о н/о +25.5 +12.7 45 +27 +27 жарко 1028.9 1004.7
14 13.09 СЗ 2 н/о н/о +25.5 +12.8 45 +27 +27 жарко 1028.7 1004.5
15 13.09 СЗ 3 н/о н/о +25.6 +13.3 46 +28 +28 жарко 1028.6 1004.4
16 13.09 СЗ 3 н/о н/о +24.5 +13.8 51 +27 +27 жарко 1028.7 1004.4
17 13.09 СЗ 2 н/о н/о +23.4 +14.2 56 +27 +27 душно 1029.0 1004.6
18 13.09 СЗ 2 н/о н/о +22.5 +13.6 57 +26 +26 жарко 1029.4 1004.9 +14.3 +26.4
19 13.09 С 1 н/о н/о +21.4 +14.1 63 +24 +24 комфорт 1030.0 1005.4
20 13.09 СЗ 2 н/о н/о +19.6 +14.2 71 +22 +22 комфорт 1030.3 1005.6
21 13.09 СЗ 2 н/о н/о +18.0 +14.0 77 +19 +19 1030.5 1005.6
22 13.09 СЗ 1 н/о н/о +16.7 +13.7 82 +18 +18 1030.7 1005.7
23 13.09 СЗ 2 н/о н/о +16.8 +13.7 82 +17 +17 1030.8 1005.8
00 14.09 СЗ 3 н/о н/о +17.4 +13.8 79 +17 +17 1030.5 1005.6
01 14.09 В 1 н/о н/о +17.8 +13.8 77 +19 +19 1030.8 1005.9
02 14.09 СЗ 2 н/о н/о +16.9 +13.9 82 +17 +17 1031.2 1006.2
03 14.09 СЗ 1 н/о н/о +16.3 +14.0 86 +17 +17 1031.3 1006.3
04 14.09 С 1 н/о н/о +16.6 +14.2 86 +17 +17 1031.8 1006.8
05 14.09 СВ 2 н/о н/о +16.9 +12.4 75 +17 +17 1032.1 1007.1
06 14.09 С 2 н/о н/о +16.6 +11.8 73 +17 +17 1032.8 1007.7 +16.2 +22.7
07 14.09 СВ 1 н/о н/о +16.9 +11.7 71 +18 +18 1033.5 1008.4
08 14.09 СВ 2 н/о н/о +17.3 +12.2 72 +18 +18 1033.5 1008.5
09 14.09 СВ 2 н/о н/о +18.2 +11.5 65 +19 +19 1033.5 1008.5
10 14.09 Ю 1 н/о н/о +19.2 +11.4 61 +21 +21 комфорт 1032.8 1007.9
11 14.09 В 1 н/о н/о +19.4 +11.1 59 +22 +22 комфорт 1032.3 1007.5
12 14.09 СВ 1 н/о н/о +20.2 +11.2 56 +23 +23 комфорт 1031.8 1007.0
13 14.09 С 2 н/о н/о +19.9 +11.4 58 +22 +22 комфорт 1031.5 1006.7
14 14.09 С 2 н/о н/о +21.0 +11.0 53 +24 +24 комфорт 1030.6 1005.9
15 14.09 СЗ 2 н/о н/о +21.5 +11.3 52 +23 +23 комфорт 1030.0 1005.4
16 14.09 С 1 н/о н/о +21.3 +11.0 52 +23 +23 комфорт 1029.1 1004.5
17 14.09 СВ 1 н/о н/о +19.5 +12.1 62 +22 +22 комфорт 1029.3 1004.6
18 14.09 СЗ 1 н/о н/о +16.2 +12.1 77 +17 +17 1029.9 1004.9 +16.2 +21.9
19 14.09 СЗ 3 н/о н/о +14.9 +11.5 80 +14 +14 1030.5 1005.3
20 14.09 СЗ 3 н/о н/о +13.7 +11.2 85 +13 +13 1030.6 1005.3
21 14.09 СЗ 2 н/о н/о +13.1 +10.9 86 +12 +12 1030.8 1005.5
22 14.09 СЗ 1 н/о н/о +12.2 +10.4 89 +12 +12 1031.0 1005.6
23 14.09 СЗ 2 н/о н/о +11.5 +10.0 90 +10 +10 1030.9 1005.4
00 15.09 СЗ 2 н/о н/о +10.7 +9.4 92 +9 +9 1030.3 1004.8
01 15.09 СЗ 2 н/о н/о +10.1 +8.7 91 +9 +9 1029.9 1004.3
02 15.09 СЗ 3 н/о н/о +9.8 +8.5 92 +7 +7 1029.3 1003.7
03 15.09 СЗ 3 н/о н/о +9.2 +8.0 92 +7 +7 1029.2 1003.5
04 15.09 СЗ 3 н/о н/о +8.7 +7.5 92 +6 +6 1028.9 1003.2
05 15.09 СЗ 2 н/о н/о +8.4 +7.3 93 +6 +6 1028.9 1003.2
06 15.09 СЗ 3 н/о н/о +9.4 +7.7 89 +7 +7 1028.7 1003.1 +8.4 +16.4
07 15.09 СЗ 2 н/о н/о +11.9 +8.4 79 +11 +11 1028.3 1002.9
08 15.09 Ю 1 н/о н/о +15.1 +9.0 67 +16 +16 1027.4 1002.3
09 15.09 ЮВ 1 н/о н/о +16.9 +9.4 61 +18 +18 1026.9 1002.0
10 15.09 ЮВ 1 н/о н/о +18.9 +10.4 58 +21 +21 комфорт 1026.1 1001.4
11 15.09 В 2 н/о н/о +20.4 +11.2 55 +23 +23 комфорт 1024.9 1000.3
12 15.09 В 1 н/о н/о +22.0 +12.0 53 +24 +24 комфорт 1024.1 999.7
13 15.09 ЮВ 1 н/о н/о +23.5 +13.2 52 +26 +26 жарко 1023.2 998.9
14 15.09 ЮВ 1 н/о н/о +23.9 +12.6 49 +26 +26 жарко 1022.2 998.0
15 15.09 ЮВ 2 н/о н/о +24.2 +12.9 49 +26 +26 жарко 1021.2 997.0
16 15.09 В 1 н/о н/о +23.8 +13.6 53 +26 +26 жарко 1020.4 996.2
17 15.09 В 2 н/о н/о +21.8 +14.6 64 +25 +25 комфорт 1020.1 995.8
18 15.09 СЗ 1 н/о н/о +18.6 +14.2 76 +20 +20 1020.4 995.8 +9.1 +25.1
19 15.09 З 2 н/о н/о +16.7 +13.5 81 +17 +17 1021.0 996.2
20 15.09 штиль 0 н/о н/о +15.1 +13.0 87 +15 +15 1021.3 996.4
21 15.09 СЗ 1 н/о н/о +13.9 +12.3 90 +14 +14 1021.4 996.4
22 15.09 СЗ 1 н/о н/о +13.5 +12.1 91 +14 +14 1021.6 996.5
23 15.09 СЗ 1 н/о н/о +13.0 +11.8 92 +13 +13 1021.6 996.5
00 16.09 СЗ 1 н/о н/о +12.2 +11.2 94 +12 +12 1021.2 996.0
01 16.09 СЗ 2 н/о н/о +12.3 +11.3 94 +11 +11 1020.9 995.7
02 16.09 СЗ 2 н/о н/о +12.5 +11.4 93 +11 +11 1020.5 995.4
03 16.09 СЗ 2 н/о н/о +12.4 +11.3 93 +11 +11 1020.2 995.1
04 16.09 СЗ 2 н/о н/о +12.5 +11.3 92 +12 +12 1019.9 994.8
05 16.09 СЗ 1 н/о н/о +12.0 +10.9 93 +12 +12 1019.8 994.6
06 16.09 СЗ 2 н/о н/о +13.0 +11.5 91 +12 +12 1019.9 994.8 +11.9 +19.1
07 16.09 СЗ 1 н/о н/о +14.6 +12.6 88 +15 +15 1020.2 995.3
08 16.09 СЗ 1 н/о н/о +19.3 +14.5 74 +22 +22 комфорт 1019.9 995.4
09 16.09 С 2 н/о н/о +22.6 +13.7 57 +26 +26 жарко 1019.3 995.1
10 16.09 Ю 2 н/о н/о +24.4 +14.1 53 +27 +27 жарко 1018.7 994.6
11 16.09 Ю 2 н/о н/о +25.1 +13.5 49 +27 +27 жарко 1017.8 993.8
12 16.09 ЮВ 2 н/о н/о +25.7 +14.7 51 +28 +28 жарко 1016.9 993.0 0.0
13 16.09 В 2 н/о н/о +25.9 +15.0 51 +29 +29 душно 1016.1 992.2
14 16.09 Ю 1 н/о н/о +26.7 +14.3 46 +29 +29 жарко 1015.4 991.6
15 16.09 З 2 н/о н/о +25.8 +11.4 41 +27 +27 жарко 1015.4 991.5
16 16.09 З 2 н/о н/о +24.7 +10.3 40 +26 +26 жарко 1015.3 991.3
17 16.09 СЗ 1 н/о н/о +21.7 +13.8 61 +25 +25 комфорт 1015.3 991.1
18 16.09 СЗ 1 н/о н/о +20.5 +13.2 63 +24 +24 комфорт 1015.7 991.4 +12.7 +27.7 0.0
19 16.09 СЗ 1 н/о н/о +19.1 +13.9 72 +21 +21 комфорт 1015.9 991.5
20 16.09 СЗ 1 н/о н/о +18.7 +13.4 71 +21 +21 комфорт 1016.4 991.9
21 16.09 штиль 0 н/о н/о +17.9 +14.4 80 +18 +18 1016.4 991.9
22 16.09 З 1 н/о н/о +17.7 +13.7 77 +19 +19 1016.1 991.5
23 16.09 З 1 н/о н/о +17.5 +13.3 76 +19 +19 1016.4 991.8
00 17.09 СЗ 2 н/о н/о +17.6 +12.7 73 +18 +18 1015.9 991.3
01 17.09 СЗ 1 н/о н/о +17.3 +12.8 75 +18 +18 1015.5 990.9
02 17.09 З 2 н/о н/о +17.4 +12.4 72 +18 +18 1015.4 990.8
03 17.09 СЗ 1 н/о н/о +16.9 +12.6 76 +18 +18 1015.3 990.7
04 17.09 СЗ 1 н/о н/о +16.6 +12.6 77 +17 +17 1015.4 990.8
05 17.09 СЗ 2 н/о н/о +17.5 +12.2 71 +18 +18 1015.8 991.2 0.0
06 17.09 СЗ 2 н/о н/о +17.8 +12.6 72 +18 +18 1016.1 991.5 +16.5 +20.6 0.0
07 17.09 СЗ 3 н/о н/о +18.3 +13.1 72 +19 +19 1016.3 991.8
08 17.09 СЗ 2 н/о н/о +18.6 +13.4 72 +20 +20 1016.6 992.1
09 17.09 С 3 н/о н/о +16.7 +12.7 77 +16 +16 1017.0 992.3
10 17.09 С 3 н/о н/о +15.0 +11.9 82 +14 +14 1017.2 992.4 0.0
11 17.09 С 1 н/о н/о +16.6 +12.4 76 +17 +17 1016.7 992.0 0.0
12 17.09 С 2 н/о н/о +17.2 +12.7 75 +18 +18 1015.9 991.3 0.0
13 17.09 Ю 2 н/о н/о +18.2 +13.1 72 +19 +19 1015.4 990.9
14 17.09 ЮВ 1 н/о н/о +17.4 +13.3 77 +18 +18 1014.9 990.3
15 17.09 Ю 1 н/о н/о +18.8 +13.3 70 +21 +21 комфорт 1014.3 989.9
16 17.09 СВ 1 н/о н/о +18.5 +13.7 74 +20 +20 1014.0 989.6
17 17.09 З 1 н/о н/о +19.1 +11.7 62 +21 +21 комфорт 1014.0 989.6
18 17.09 З 2 н/о н/о +17.3 +9.2 59 +18 +18 1015.0 990.4 +14.9 +20.4 0.0
19 17.09 З 2 н/о н/о +15.5 +9.4 67 +15 +15 1015.9 991.1
20 17.09 З 1 н/о н/о +13.3 +9.4 77 +14 +14 1016.9 991.9
21 17.09 З 2 н/о н/о +14.1 +9.3 73 +14 +14 1017.1 992.2
22 17.09 З 2 н/о н/о +13.3 +8.7 74 +13 +13 1017.7 992.7
23 17.09 СЗ 1 н/о н/о +12.5 +8.6 77 +13 +13 1018.3 993.2
00 18.09 СЗ 4 н/о н/о +14.9 +6.9 59 +14 +14 1018.9 994.0
01 18.09 СЗ 3 н/о н/о +14.0 +6.1 59 +13 +13 1019.4 994.4
02 18.09 СЗ 3 н/о н/о +12.6 +3.3 53 +11 +11 1020.7 995.5
03 18.09 СЗ 3 н/о н/о +11.5 +3.7 59 +10 +10 1021.3 996.0
04 18.09 СЗ 3 н/о н/о +10.8 +4.2 64 +9 +9 1022.1 996.7
05 18.09 СЗ 4 н/о н/о +10.7 +4.1 64 +8 +8 1022.8 997.4
06 18.09 СЗ 4 н/о н/о +11.2 +3.9 61 +9 +9 1023.4 998.0 +10.4 +17.6
07 18.09 СЗ 4 н/о н/о +12.3 +3.8 56 +11 +11 1024.1 998.8
08 18.09 СЗ 5 н/о н/о +13.2 +2.4 48 +11 +11 1024.4 999.2
09 18.09 З 3 н/о н/о +14.7 +2.8 45 +14 +14 1024.3 999.2
10 18.09 СЗ 4 н/о н/о +15.8 +0.9 36 +15 +15 1024.2 999.2
11 18.09 З 3 н/о н/о +16.8 -1.0 30 +17 +17 1023.7 998.8
12 18.09 СЗ 4 н/о н/о +17.3 -2.5 26 +17 +17 1023.4 998.5
13 18.09 З 3 н/о н/о +18.3 -2.3 25 +18 +18 1022.8 998.0
14 18.09 СЗ 4 н/о н/о +18.2 -3.5 23 +18 +18 1022.5 997.7
15 18.09 С 4 н/о н/о +18.0 -1.7 26 +18 +18 1022.2 997.4
16 18.09 СЗ 2 н/о н/о +16.9 -1.1 29 +17 +17 1022.4 997.5

 

Местоположение метеостанции Лангенлойс (Австрия): широта 48.47 долгота 15.70 высота над уровнем моря 204 м.

В архиве по умолчанию представлена погода в Лангенлойсе за последнюю неделю. Архивные данные за месяц целиком и за предыдущие месяцы, начиная с января 2011 года, Вы можете получить, выбрав интересующий диапазон дат из раскрывающегося списка и нажав кнопку "Ввод!".


*Определитесь, кто Вы:
робот инопланетянин человек

Внимание! Время в таблицах - всемирное. Для получения местного времени необходимо прибавить поправку, которая равна 1 ч.

Смотрите также архив погоды в соседних городах и на ближайших метеорологических станциях:

Погода в Кремс-ан-дер-Донау (Австрия) (8 км)
Погода в Гарс-ам-Кампе (Австрия) (12 км)
Погода в Санкт-Пёльтене (Австрия) (30 км)
Погода в Яуерлинге (Австрия) (31 км)
Погода в Аллентштайге (Австрия) (34 км)
Погода в Тульн-ан-дер-Донау (Австрия) (35 км)
Погода в Штоккерау (Австрия) (37 км)
Погода в Реце (Австрия) (38 км)
Погода в Цветле (Австрия) (40 км)
Погода в Мариябрунн (Австрия) (49 км)

Пояснения к столбцам:

Ветер - указаны скорость ветра в м/с - средняя за 10 мин, порывы в срок и между сроками (в фигурных скобках) и направление, откуда дует ветер: С - северный, СВ - северо-восточный, В - восточный, ЮВ - юго-восточный, Ю - южный, ЮЗ - юго-западный, З - западный, СЗ - северо-западный.
Видимость - горизонтальная дальность видимости в метрах или километрах. При видимости от 1 до 10 км при отсутствии осадков обычно наблюдается дымка, при ухудшении видимости до 1 км и менее - туман. В сухую погоду видимость может ухудшаться дымом, пылью или мглою.
Явления - указаны атмосферные явления, наблюдавшиеся в срок или в последний час перед сроком; фигурными скобками обозначены явления, наблюдавшиеся между сроками (за 1-3 часа до срока); квадратными скобками обозначены град или гололедные отложения с указанием их диаметра в мм.
Облачность - указаны через наклонную черту общая и нижняя облачность в баллах и высота нижней границы облаков в метрах; квадратными скобками обозначены формы облаков: Ci - перистые, Cs - перисто-слоистые, Cc - перисто-кучевые, Ac - высококучевые, As - высокослоистые, Sc - слоисто-кучевые, Ns - слоисто-дождевые, Cu - кучевые, Cb - кучево-дождевые. Подробнее классификацию облаков см. в Атласе облаков (PDF).
T - Температура воздуха - температура, измеренная на высоте 2 м над землей.
Td - Температура точки росы - температура, при понижении до которой содержащийся в воздухе водяной пар достигнет насыщения.
f - Относительная влажность воздуха - влажноcть воздуха, измеренная на высоте 2 м над землей.
Te - Эффективная температура - температура, которую ощущает одетый по сезону человек в тени. Характеристика душности погоды. При расчете учитывается влияние влажности воздуха и скорости ветра на теплоощущения человека.
Tes - Эффективная температура на солнце - температура, которую ощущает человек, с поправкой на солнечный нагрев. Характеристика знойности погоды. Зависит от высоты солнца над горизонтом, облачности и скорости ветра. Ночью, в пасмурную погоду, а также при ветре 12 м/с и более поправка равна нулю.
P - Атмосферное давление - приведенное к уровню моря атмосферное давление.
Po - Атмосферное давление - измеренное на уровне метеостанции атмосферное давление.
Tmin - Минимальная температура - минимум температуры воздуха на высоте 2 м над землей.
Tmax - Максимальная температура - максимум температуры воздуха на высоте 2 м над землей.
R - Количество осадков - Количество выпавших осадков за период времени, мм. При наведении курсора мыши на число - период времени, за который выпало указанное количество осадков.
R24 - Количество осадков - Количество выпавших осадков за 24 часа, мм.
S - Снежный покров - Высота снежного покрова, см. При наведении курсора мыши на число - состояние снежного покрова и степень покрытия местности в баллах.